Regional Weather Roundup
Issued by NWS

Home | Current Version | Previous Version | Text Only | Print | Product List | Glossary On
Versions: 1 2 3 4 5 6 7 8 9 10 11 12 13 14 15 16 17 18 19 20 21 22 23 24 25 26 27 28 29 30 31 32 33 34 35 36 37 38 39 40 41 42 43 44 45 46 47 48 49 50
000
ASHW40 PHFO 281830
RWRHI

WEATHER ROUNDUP FOR HAWAII
NATIONAL WEATHER SERVICE HONOLULU HI
800 AM HST FRI NOV 28 2014

THIS IS AN AUTOMATED REPORT THAT HAS NOT BEEN QUALITY CONTROLLED.

NOTE..."FAIR" INDICATES FEW OR NO CLOUDS BELOW 12,000 FEET WITH NO
SIGNIFICANT WEATHER AND/OR OBSTRUCTIONS TO VISIBILITY.

* - THESE SITES REPORT LIMITED FIELDS

HIZ001>004-281900-
KAUAI-NIIHAU-

CITY           SKY/WX    TMP DP  RH WIND       PRES   REMARKS
LIHUE APT      CLOUDY    75  60  59 NE20G26   30.10R
PORT ALLEN*      N/A     73 N/A N/A NE15G22     N/A
POIPU*           N/A     73 N/A N/A NE12G23     N/A
PRINCEVILLE*     N/A     73 N/A N/A MISG        N/A
KOKOLE POINT*  NOT AVBL
MOLOAA DAIRY*  NOT AVBL
WAIMEA HTS*    NOT AVBL
PUU OPAE*      NOT AVBL
PUU LUA*       NOT AVBL
MAKAHA RIDGE*  NOT AVBL
$$

HIZ005>011-281900-
OAHU-

CITY           SKY/WX    TMP DP  RH WIND       PRES   REMARKS
HONOLULU       MOSUNNY   76  64  66 NE13      30.05S
KALAELOA       SUNNY     74  63  68 VRB6      30.07R
KANEOHE MCB    MOSUNNY   75  64  68 NE14G23   30.04
WHEELER FIELD  FAIR      71  63  75 N6        30.08R
BELLOWS*         N/A    N/A N/A N/A NE24        N/A
KAHUKU*          N/A    N/A N/A N/A E9G18       N/A
WHEELER*       NOT AVBL
WAIANAE HARBOR NOT AVBL
DILLINGHAM*      N/A     63  55  77 E3          N/A
KAHUKU TRN*      N/A     70  63  78 E12G26      N/A
KAWAILOA*        N/A     68  63  83 NE12G22     N/A
KII*             N/A     73  66  78 E18G31      N/A
MAKUA RANGE*     N/A     73  64  73 E12G18      N/A
OAHU FOREST NW NOT AVBL
SCHOFIELD BRK*   N/A     72  63  73 N1          N/A
SCHOFIELD S*   NOT AVBL
WAIANAE VLY*   NOT AVBL
KUAOKALA*      NOT AVBL
HONOULIUULI*   NOT AVBL
MOKUOLOE IS*     N/A    N/A N/A N/A MISG        N/A
PALEHUA*       NOT AVBL
WAIAWA PHB*    NOT AVBL
$$

HIZ012>013-281900-
MOLOKAI-

CITY           SKY/WX    TMP DP  RH WIND       PRES   REMARKS
MOLOKAI AIRPT  LGT RAIN  72  66  81 NE16G26   30.06R
KALAUPAPA      NOT AVBL
MAKAPULAPAI*   NOT AVBL
MOLOKAI 1*     NOT AVBL
PUU ALII*        N/A     57  57 100 E3G12       N/A
$$

HIZ016-281900-
KAHOOLAWE-

CITY           SKY/WX    TMP DP  RH WIND       PRES   REMARKS
KAHOOLAWE*     NOT AVBL
HAKIOAWA*      NOT AVBL
HONOKANAIA*      N/A     77  65  65 VRB12G26  30.04S
KANELOA*         N/A     73  66  78 N16G33    29.24R
KEALIALALO*    NOT AVBL
LUA MAKIKA*    NOT AVBL
$$

HIZ014>015-281900-
LANAI-

CITY           SKY/WX    TMP DP  RH WIND       PRES   REMARKS
LANAI CITY       N/A    N/A N/A N/A MISG        N/A
LANAI 1*       NOT AVBL
$$

HIZ017>028-281900-
MAUI-

CITY           SKY/WX    TMP DP  RH WIND       PRES   REMARKS
KAHULUI        LGT RAIN  72  66  81 NE9       30.07R
KAPALUA-W MAUI LGT RAIN  68  66  94 NE20G29   30.06R FOG
HANA AIRPORT   CLOUDY    75  68  78 NE15      30.10S HAZE
HANA*            N/A     75 N/A N/A NE13G18     N/A
HALEAKALA SUMM   N/A     52   3  14 NE9         N/A
MAALAEA BAY*   NOT AVBL
HALEAKALA*     NOT AVBL
KAUPO GAP*     NOT AVBL
KULA 1*          N/A     51  36  57 NE5         N/A
$$

HIZ023>026-281900-
BIG ISLAND OF HAWAII COAST AND LOWER SLOPES-

CITY           SKY/WX    TMP DP  RH WIND       PRES   REMARKS
KAILUA KONA    SUNNY     76  62  62 E5        29.98R
HILO           CLOUDY    75  68  78 NE9       30.05S
HONOKAA*       NOT AVBL
KAWAIHAE MWT*    N/A     81 N/A N/A NW5G12      N/A
KAWAIHAE*        N/A     81 N/A N/A W17         N/A
SOUTH POINT*     N/A     72 N/A N/A NE18G25     N/A
UPOLU AIRPORT*   N/A    N/A N/A N/A NE25G31     N/A
KAMUELA*       NOT AVBL
HAKALAU*         N/A     54  53  98 S1          N/A
KALOKO-HONOKO*   N/A     81  63  54 E3        29.99R
PALI 2*          N/A     68  63  83 NE18G31     N/A
KEALAKOMO*       N/A     79  66  65 NE20G30     N/A
KAUPULEHU*     NOT AVBL
KAPAPALA*      NOT AVBL
LOWER KAHUKU*    N/A     66  55  68 VRB3G14     N/A
PUHE CS*       NOT AVBL
PUHO CS*         N/A     72  49  44 E3          N/A
PTA KEAMUKU*     N/A     63  55  77 CALM        N/A
WAIKOLOA*      NOT AVBL
$$

HIZ027>028-281900-
BIG ISLAND OF HAWAII INTERIOR AND SUMMMITS-

CITY           SKY/WX    TMP DP  RH WIND       PRES   REMARKS
BRADSHAW FIELD SUNNY     58  49  71 SE8G20    30.32S
MK VISITOR CEN NOT AVBL
MAUNA KEA*       N/A     37   0  20 NW3         N/A
MAUNA LOA*       N/A     46   5  18 MISG        N/A
MAUNA LOA 1*   NOT AVBL
PTA KIPUKA*      N/A     57  36  44 SW2G8       N/A
PTA RANGE 17*    N/A     59  54  82 SE17G26     N/A
PTA WEST*        N/A     64  50  59 SW2G18      N/A
NENE CABIN*      N/A    N/A N/A N/A E5G12       N/A
AHUMOA*        NOT AVBL
PTA PORTABLE*  NOT AVBL
PUU MALI*      NOT AVBL
$$

HIC003-281900-
NORTHWEST ISLANDS-

CITY           SKY/WX    TMP DP  RH WIND       PRES   REMARKS
MIDWAY ISLAND  FOG       73  72  94 SE16      30.00R VSB 1
MIDWAY NOS*    NOT AVBL
FRENCH FRIGATE NOT AVBL
$$

PHZ110>124-180-281900-
BUOY REPORTS

STATION/POSITION TIME  TEMP    WIND        PRES    WAVE   SWELL
                       AIR SEA DIR/SP/G            HT/PER HT/DIR
                 (UTC) (F)     (DEG/KT/KT) (MB)    (FT/S) (FT/D)
BUOY 51001       NOT AVBL
BUOY 51101       1800   75 77   60/ 17/ 21 1020.7R   9/12   7/ 10
BUOY 51100       1800   74 77   70/ 17/ 23 1019.9R
BUOY 51003       1800   78 80   60/ 19/ 23 1015.4R  10/14   7
BUOY 51004       1741   78 79   80/ 17/ 19 1014.8R   8/11   7/350
BARBERS PT BUOY  NOT AVBL
WAIMEA BAY BUOY  1800      78                N/A    10/13
KAILUA BAY BUOY  1800      78                N/A    10/ 8   5
LANAI BUOY       1800      79                N/A     2/14   2/250
BARBERS PT 2     1800      78                N/A     4/13   3/310
PAUWELA MAUI     1800      79                N/A    11/13   7/340
HILO             1800      79                N/A    10/11   5/360
KANEOHE BAY BUOY 1800      78                N/A     9/11   3
HANALEI KAUAI    NOT AVBL
KAHULUI HARBOR   1800   74 76   60/  8/ 12 1018.2R
HONOLULU HARBOR  1800   75      80/  9/ 16 1018.2R
KILO NALU        NOT AVBL
HILO HARBOR      1800   76      70/  6/ 11 1017.3R
MOKUOLOE         1800   75 75   70/ 14/ 18 1019.1R
NAWILIWILI       1800      78                N/A
WHOTS BUOY       NOT AVBL
BUOY 51028       NOT AVBL
$$

......................KEY........................................
  SKY/WX - SKY CONDITIONS/PRESENT WEATHER
  TMP    - TEMPERATURE IN FAHRENHEIT
  DWPT   - DEWPOINT IN FAHRENHEIT
  RH     - RELATIVE HUMIDITY IN PERCENT
  WIND   - DIRECTION AND SPEED /MPH FOR ISLANDS...KTS FOR BUOYS/
  PRES   - MEAN SEA LEVEL PRESSURE IN INCHES OF HG
  VSB    - VISIBILITY IN MILES
  HX     - HEAT INDEX
  WCI    - WIND CHILL INDEX
  VRB    - VARIABLE WIND DIRECTION
  N/A    - NOT AVAILABLE



USA.gov is the U.S. government's official web portal to all federal, state and local government web resources and services.